Simultaneous Nadir Overpasses (SNOs) Predictions

Prediction of SNOs between METOP-B and NOAA-19 Satellite Orbit:

Table of predicted SNOs for the next 14.0 days since TLE Epoch: 4/23/2016
Index Date (METOP-B) Time (METOP-B) Lat,Lon (METOP-B) SZA (METOP-B ) Date (NOAA-19) Time (NOAA-19) Lat,Lon (NOAA-19) SZA (NOAA-19 ) Distance(km) Time Diff (sec)
1 05/03/2016 20:29:25 -76.03, 52.71 120.03 05/03/2016 20:28:19 -76.02, 52.56 120.04 4.13 66
2 05/03/2016 21:20:05 76.01,-140.03 59.94 05/03/2016 21:19:15 76.02,-140.14 59.94 3.16 50
3 05/03/2016 22:10:48 -75.97, 27.15 120.12 05/03/2016 22:10:20 -75.98, 27.23 120.11 2.29 28
4 05/03/2016 23:01:27 75.99,-165.43 59.90 05/03/2016 23:01:16 75.97,-165.47 59.87 3.19 11
5 05/03/2016 23:52:10 -75.95, 1.75 120.16 05/03/2016 23:52:22 -75.97, 1.74 120.14 2.35 12
6
